Hot Springs, AR

9:52 AM CST on December 14, 2019 (GMT -0600)
Hot Springs Memorial

Weather History for KHOT - November, 2019

Change the Weather History Date:

Tuesday, November 12, 2019

  Actual Average Record
Temperature  
Mean Temperature 30 °F -  
Max Temperature 37 °F 64 °F 83 °F (1955)
Min Temperature 23 °F 39 °F 23 °F (1976)
Degree Days  
Heating Degree Days 35    
Moisture  
Dew Point 11 °F    
Average Humidity 48    
Maximum Humidity 65    
Minimum Humidity 30    
Precipitation  
Precipitation 0.00 in - - ()
Sea Level Pressure  
Sea Level Pressure 30.51 in    
Wind  
Wind Speed 7 mph (NE)    
Max Wind Speed 12 mph    
Max Gust Speed 22 mph    
Visibility 10 miles    
Events      
Averages and records for this station are not official NWS values.
T = Trace of Precipitation, MM = Missing Value Source: NWS Daily Summary

Daily Weather History Graph

Daily Weather History Graph

Search for Another Location

Airport or City:

Astronomy

Nov. 12, 2019 Rise Set
Actual Time 6:42 AM CST 5:09 PM CST
Civil Twilight 6:16 AM CST 5:36 PM CST
Nautical Twilight 5:45 AM CST 6:06 PM CST
Astronomical Twilight 5:16 AM CST 6:36 PM CST
Moon 5:36 PM CST (11/12) 6:37 AM CST (11/12)
Length of Visible Light 11h 20m
Length of Day
10h 27m
Full, 100% of the Moon is Illuminated
Nov 12
Full
Nov 19
Last Quarter
Nov 26
New
Dec 4
First Quarter
Dec 11
Full

Hourly Weather History & Observations

Time (CST) Temp. Windchill Dew Point Humidity Pressure Visibility Wind Dir Wind Speed Gust Speed Precip Events Conditions
12:53 AM 28.0 °F 18.1 °F 15.1 °F 58% 30.48 in 10.0 mi North 11.5 mph 21.9 mph N/A   Clear
1:53 AM 27.0 °F 20.5 °F 15.1 °F 61% 30.50 in 10.0 mi NNE 5.8 mph - N/A   Clear
2:53 AM 26.1 °F - 14.0 °F 60% 30.52 in 10.0 mi North - - N/A   Clear
3:53 AM 24.1 °F 14.4 °F 12.0 °F 60% 30.54 in 10.0 mi North 9.2 mph 16.1 mph N/A   Clear
4:53 AM 23.0 °F - 9.0 °F 55% 30.56 in 10.0 mi North - - N/A   Clear
9:53 AM 28.0 °F - 8.1 °F 43% 30.63 in 10.0 mi North - - N/A   Clear
10:53 AM 30.0 °F 24.1 °F 8.1 °F 40% 30.61 in 10.0 mi Variable 5.8 mph - N/A   Clear
11:53 AM 32.0 °F - 9.0 °F 38% 30.58 in 10.0 mi North - - N/A   Clear
12:53 PM 35.1 °F - 9.0 °F 34% 30.54 in 10.0 mi North - - N/A   Clear
1:53 PM 35.1 °F 32.2 °F 8.1 °F 33% 30.52 in 10.0 mi Variable 3.5 mph - N/A   Clear
2:53 PM 37.0 °F 32.4 °F 8.1 °F 30% 30.50 in 10.0 mi Variable 5.8 mph - N/A   Clear
3:53 PM 36.0 °F 31.1 °F 7.0 °F 30% 30.48 in 10.0 mi NE 5.8 mph - N/A   Clear
4:53 PM 34.0 °F 29.8 °F 8.1 °F 34% 30.48 in 10.0 mi NNE 4.6 mph - N/A   Clear
5:53 PM 32.0 °F 28.7 °F 9.0 °F 38% 30.48 in 10.0 mi NNE 3.5 mph - N/A   Clear
6:53 PM 28.0 °F 22.8 °F 12.9 °F 53% 30.49 in 10.0 mi East 4.6 mph - N/A   Clear
7:53 PM 27.0 °F 20.5 °F 12.9 °F 56% 30.49 in 10.0 mi ENE 5.8 mph - N/A   Clear
8:53 PM 27.0 °F 23.0 °F 14.0 °F 58% 30.49 in 10.0 mi ENE 3.5 mph - N/A   Clear
9:53 PM 27.0 °F - 14.0 °F 58% 30.49 in 10.0 mi Calm Calm - N/A   Clear
10:53 PM 25.0 °F 18.1 °F 12.9 °F 60% 30.46 in 10.0 mi East 5.8 mph - N/A   Clear
11:53 PM 24.1 °F 19.7 °F 14.0 °F 65% 30.44 in 10.0 mi ESE 3.5 mph - N/A   Clear